Terminal Aerodrome Forecast
Issued by NWS Dallas/Fort Worth, TX

Home | Current Version | Previous Version | Text Only | Print | Product List | Glossary On
Versions: 1 2 3 4 5 6 7 8 9 10 11 12 13 14 15 16 17 18 19 20 21 22 23 24 25 26
000
FTUS44 KFWD 261120
TAFDFW
TAF
KDFW 261120Z 2612/2718 12006KT P6SM SCT120 BKN250
     FM262000 09006KT P6SM VCTS SCT060CB BKN300
     FM270000 12006KT P6SM FEW070 BKN300=

USA.gov is the U.S. government's official web portal to all federal, state and local government web resources and services.